STARLINK-1738, 46336

Orbit data source: Space-Track

STARLINK-1738, 46336 is a payload satellite owned by SpaceX/Seattle (US) in LEO that was launched on Thu, 03 Sep 2020 UTC via an FALCON 9 launch vehicle from the Air Force Eastern Test Range (AFETR). Payloads include a variety of satellites, spacecraft, and rockets equipped with specific instruments for various scientific and technological missions. These include communications satellites like Starlink; space stations such as the ISS; scientific satellites like the Hubble; Earth observation satellites from companies like Planet Labs, Umbra, and HawkEye 360; GPS; miniature CubeSats for education and research; and military/defense satellites.

Loading next visibility...
STARLINK-1738 details
Identifier
46336, 2020-062M
Orbit
LEO
Last TLE update1 day ago
Origin
Flag of USSpaceX/Seattle (US)
ManufacturerSpaceX/Seattle
MissionOperational Commercial Communications
Bus & MotorSTARLINK, Unknown motor
Mass260 kg wet, ~248 kg dry
Launch date (UTC)
2020-09-03 (4 years ago)
Launch vehicle
FALCON 9
Launch site
Air Force Eastern Test Range (AFETR)
Object type
Payload
Rocket body
Debris
Shape & HBRBox + 1 Pan, 8.86 m
Radar Cross Section13.562 m², Large (>1 m²)

Expand to show TLE details & history

TLE from 1 day ago
0 STARLINK-1738
1 46336U 20062M   24336.12345862  .00009670  00000-0  66717-3 0  9993
2 46336  53.0546 277.6453 0002437 100.1361 259.9903 15.06401734234905
Epoch: 2024-12-01T02:57Z
Definitive object data (Epoch: 2024-12-01T02:57:46.824Z)
Latitude-0.00003°
Longitude162.73399°
Altitude548.379 km
Speed7.589 km/s
True Right ascension18h 30m 34s
True Declination0° 00' 00"
Sunlit
Object was in daylight at TLE epoch
Visualization TLE readout
Latitude22.21468°
Longitude-40.53957°
Altitude546.657 km
Speed7.593 km/s
Apparent Right ascension02h 20m 49s
Apparent Declination-33° 29' 55"
Sunlit
Object is in full shadow
Visualization observer readout
Local Sidereal Time06:03:56
Azimuth223.593° SW
Elevation0.319°
Doppler factor1
Orbital elements
Apogee altitude549.165 km
Perigee altitude545.789 km
Semi-major axis6,925.614 km
Eccentricity0.0002437
Inclination53.0546°
RAAN277.6453°
Arg. of periapsis100.1361°
True anomaly259.9628°
Mean anomaly259.9903°
Eccentric anomaly259.97655°
Mean motion3.76579 °/min
BSTAR0.00066717
Orbital period95.6 mins
Loading maneuver chart data...
Loading historical data...
Loading historical data...
Loading historical data...
Loading historical data...
Loading historical data...
Loading historical data...
Loading historical data...

STARLINK-1738 Visibility forecast

Observer location: undefined°, undefined

Span
Click to sort rows by Start time (UTC) header in descending order
Start Az.
Max El. time (UTC)
Max El. Az.
Max El.
End time (UTC)
End Az.
7 mins2024-12-02 22:06:43.598Z204.021° SW2024-12-02 22:09:43.598Z152.245° SSE34.168°2024-12-02 22:13:43.598Z63.011° ENE
5 mins2024-12-02 23:47:43.598Z284.221° WNW2024-12-02 23:49:43.598Z330.835° NNW27.154°2024-12-02 23:52:43.598Z29.643° NE
4 mins2024-12-03 03:09:43.598Z349.116° N2024-12-03 03:10:43.598Z5.428° NNE15.079°2024-12-03 03:13:43.598Z52.534° ENE
6 mins2024-12-03 04:48:43.598Z325.146° NNW2024-12-03 04:51:43.598Z43.28° NE36.003°2024-12-03 04:54:43.598Z105.325° ESE
5 mins2024-12-03 06:28:43.598Z272.893° WNW2024-12-03 06:30:43.598Z233.581° WSW22.666°2024-12-03 06:33:43.598Z179.38° S
|